Weather observations for the past three days for
Unalakleet
Metric (Imperial)
Date Time (akdt) Wind (kph) Vis. (km) Weather Sky Cond. Temperature (ºC) Relative Humidity Wind Chill (°C) Heat Index (°C) Pressure Precipitation (cm)
Air Dwpt 6 hour altimeter (cm) sea level (mb) 1 hr 3 hr 6 hr
Max. Min.
04 18:56 NW 33 16.09 Fair and Breezy CLR 2.2 -1.7 76% -3 75.82 1011.3
04 17:56 NW 37 16.09 Fair and Breezy CLR 2.2 -1.7 76% -4 75.87 1011.8
04 16:56 NW 33 16.09 Fair and Breezy CLR 1.1 -2.2 79% -5 75.97 1013.2
04 15:56 NW 33 16.09 Fair and Breezy CLR 0 -2.2 0 -2.2 85% -6 76.07 1014.5
04 14:56 NW 33 16.09 Fair and Breezy CLR -0.6 -2.8 85% -7 76.15 1015.7
04 13:56 NW 28 16.09 Mostly Cloudy BKN022 -0.6 -3.3 82% -7 76.23 1016.7
04 12:56 NW 24 16.09 Overcast OVC016 -1.1 -3.3 85% -7 76.3 1017.5
04 11:56 NW 20 16.09 Overcast OVC014 -1.7 -3.9 85% -7 76.33 1018.1
04 10:56 NW 17 16.09 Overcast OVC014 -1.7 -3.9 85% -6 76.38 1018.7
04 09:56 NW 11 16.09 Overcast OVC014 -2.2 -5 -2.2 -2.8 81% -6 76.43 1019.2
04 08:56 NW 15 16.09 Overcast OVC014 -2.2 -5 81% -7 76.45 1019.5
04 07:56 N 9 16.09 Overcast OVC014 -2.8 -5 85% -6 76.48 1019.8
04 06:56 N 6 16.09 Overcast OVC014 -2.8 -5 85% 76.5 1020.2
04 05:56 N 7 16.09 Overcast OVC014 -2.8 -5 85% -5 76.5 1020.3
04 03:56 NW 9 16.09 Overcast OVC012 -2.8 -5 -2.8 -3.3 85% -6 76.53 1020.6
04 02:56 NW 9 16.09 Overcast OVC012 -2.8 -5 85% -6 76.53 1020.8
04 01:56 NW 7 16.09 Overcast OVC012 -2.8 -5 85% -5 76.56 1021.0
04 00:56 NW 11 16.09 Overcast OVC012 -2.8 -5 85% -7 76.56 1020.9
03 23:56 Calm 16.09 Overcast OVC014 -2.8 -5 85% 76.56 1021.1
03 22:56 W 13 16.09 Overcast OVC014 -2.8 -5 85% -7 76.56 1021.0
03 21:56 W 13 16.09 Overcast OVC014 -2.8 -5 -0.6 -2.8 85% -7 76.56 1020.8
03 20:56 W 9 16.09 Overcast OVC014 -2.2 -5.6 78% -5 76.56 1021.1
03 19:56 W 7 16.09 Overcast OVC016 -1.7 -5 78% -4 76.58 1021.2
03 18:56 W 9 16.09 Overcast OVC016 -1.7 -5 78% -5 76.58 1021.4
03 17:56 W 7 16.09 Overcast OVC016 -1.1 -4.4 79% -3 76.61 1021.6
03 16:56 W 9 16.09 Overcast OVC014 -1.1 -4.4 79% -4 76.63 1021.9
03 15:56 SW 6 16.09 Overcast OVC014 -0.6 -4.4 -0.6 -2.8 76% 76.63 1022.0
03 14:56 SW 6 16.09 Overcast OVC014 -1.1 -4.4 79% 76.63 1022.0
03 13:56 SW 11 16.09 Overcast OVC012 -1.7 -4.4 82% -5 76.63 1022.1
03 12:56 SW 9 16.09 Overcast OVC012 -1.7 -4.4 82% -5 76.63 1021.9
03 11:56 SW 9 16.09 Overcast OVC010 -2.2 -4.4 85% -5 76.61 1021.7
03 10:56 SW 9 16.09 Overcast OVC012 -2.2 -4.4 85% -5 76.58 1021.4
03 09:56 SW 11 16.09 Overcast OVC014 -2.8 -4.4 -2.8 -3.3 89% -7 76.56 1021.0
03 08:56 SW 13 16.09 Overcast OVC014 -2.8 -5 85% -7 76.53 1020.6
03 07:56 SW 17 16.09 Overcast OVC012 -3.3 -5 88% -8 76.48 1020.0
03 06:56 SW 24 16.09 Overcast OVC012 -3.3 -4.4 92% -10 76.45 1019.6
03 05:56 SW 22 16.09 Overcast OVC014 -2.8 -4.4 89% -9 76.4 1019.0
03 04:56 SW 19 16.09 Overcast OVC012 -3.3 -5 88% -9 76.38 1018.6
03 03:56 SW 19 16.09 Overcast OVC014 -3.3 -5 -0.6 -3.3 88% -9 76.35 1018.2
03 02:56 SW 26 16.09 Overcast FEW011 OVC022 -2.8 -4.4 89% -9 76.3 1017.5
03 01:56 W 28 16.09 Overcast OVC026 -2.2 -3.9 88% -9 76.25 1016.8
03 00:56 W 15 16.09 Overcast FEW015 BKN023 OVC028 -1.7 -2.8 92% -6 76.17 1015.9
02 23:56 SW 20 9.66 Light Snow Fog/Mist BKN008 OVC016 -1.7 -2.2 96% -7 76.12 1015.1
02 22:56 SW 17 11.27 Light Snow FEW008 OVC020 -1.1 -2.2 92% -6 76.07 1014.5
02 21:56 SW 17 8.05 Unknown Precip Fog/Mist FEW004 BKN012 OVC016 -0.6 -1.7 1.7 -0.6 92% -5 76.02 1013.7
02 20:56 SW 11 9.66 Fog/Mist SCT013 OVC030 -0.6 -1.7 92% -4 75.95 1012.9
02 19:56 W 11 8.05 Fog/Mist OVC013 0 -1.7 88% -3 75.9 1012.3
02 18:56 W 13 16.09 Overcast OVC011 0 -1.1 92% -4 75.84 1011.4
02 17:56 SW 13 4.83 Light Snow Fog/Mist BKN009 BKN014 OVC025 0.6 -1.1 89% -3 75.77 1010.5
02 16:56 SW 13 6.44 Light Snow Fog/Mist FEW006 BKN010 OVC029 1.1 -0.6 89% -2 75.72 1009.7
02 15:56 SW 17 2.82 Light Snow Fog/Mist OVC006 1.1 -0.6 1.7 0.6 89% -3 75.64 1008.8
02 14:56 SW 19 2.82 Light Snow Fog/Mist BKN005 BKN010 OVC020 0.6 -0.6 92% -4 75.59 1008.0
02 13:56 SW 17 2.01 Light Snow Fog/Mist BKN007 OVC017 0.6 -0.6 92% -4 75.51 1007.0
02 12:56 SW 20 3.22 Light Snow Fog/Mist BKN005 BKN009 OVC019 0.6 0 96% -4 75.41 1005.8
02 11:56 SW 20 8.05 Light Snow Fog/Mist BKN005 OVC015 1.1 0.6 97% -3 75.31 1004.5
02 10:56 SW 17 16.09 Light Rain BKN011 OVC018 0.6 0.6 100% -4 75.21 1002.9
02 09:56 SW 9 16.09 Unknown Precip OVC013 1.1 1.1 2.8 1.1 100% -1 75.11 1001.6
02 08:56 SW 7 16.09 Light Rain FEW004 OVC014 1.1 1.1 100% -1 75.01 1000.5
02 07:56 S 9 16.09 Light Rain FEW004 OVC013 1.7 1.1 96% -1 74.96 999.5
02 06:56 SE 9 16.09 Light Rain OVC013 2.2 1.1 93% -0 74.88 998.6
02 05:56 E 7 16.09 Light Rain OVC019 2.2 1.1 93% 0 74.83 997.8
02 04:56 E 6 16.09 Light Rain OVC017 2.2 1.1 93% 74.75 996.9
02 03:56 SE 7 16.09 Overcast BKN017 OVC026 2.2 1.1 4.4 2.2 93% 0 74.7 996.3
02 02:56 E 13 16.09 Unknown Precip BKN019 OVC048 2.8 1.7 93% -0 74.65 995.5
02 01:56 E 15 16.09 Overcast BKN021 OVC044 2.8 1.7 93% -1 74.6 994.8
02 00:56 E 13 16.09 Overcast OVC029 3.3 1.7 89% 0 74.55 994.1
01 23:56 E 13 16.09 Light Rain OVC026 3.3 2.2 93% 0 74.5 993.5
01 22:56 E 9 16.09 Light Rain OVC026 3.3 2.8 97% 1 74.45 992.9
01 21:56 SE 9 16.09 Light Rain OVC022 4.4 3.3 7.2 3.9 93% 2 74.42 992.5
01 20:56 E 13 16.09 Light Rain FEW029 BKN036 OVC046 4.4 2.8 89% 2 74.37 992.0
01 19:56 E 15 16.09 Light Rain FEW027 OVC040 5 2.2 82% 2 74.37 991.8
Date Time (akdt) Wind (kph) Vis. (km) Weather Sky Cond. Air Dwpt Max. Min. Relative Humidity Wind Chill (°C) Heat Index (°C) altimeter (cm) sea level (mb) 1 hr 3 hr 6 hr
6 hour
Temperature (ºC) Pressure Precipitation (cm)